sat.trackr.live / text

‹ back to catalog

STARLINK-3576

NORAD 51883 · 2022-022AH

PAYLOAD ACTIVE UNKNOWN

§ Identity

Operator
Country
US
Launch date
2022-03-03
Launch site
AFETR
Launch vehicle
Mass (kg)
RCS (m²)

Purposes: comms

External: N2YO · Heavens-Above · Gunter

§ Orbital elements

Epoch: 2026-05-25T00:38:48.379776Z

Period
95.44 min
Inclination
53.2132°
Eccentricity
0.0001185
Mean motion
15.08847068 rev/d
Perigee alt
538.9 km
Apogee alt
540.5 km
Semi-major
6,917.9 km
B*
-7.6285e-5
RAAN
16.6106°
Arg perigee
72.9310°
Mean anomaly
287.1812°
Rev number
23,476

§ Raw data

STARLINK-35761 51883U 22022AH  26145.02694884 -.00001502  00000+0 -76285-4 0  99932 51883  53.2132  16.6106 0001185  72.9310 287.1812 15.08847068234768

JSON: /api/v1/satellites/51883 · /tle

For live sub-satellite position, see the globe view (requires WebGL).

§ Visibility from observer

Set your observer location to see the next 7 days of passes ≥ 10°. The values pass through the URL so the page stays shareable.

No JS? Fill the form by hand. The geolocation button needs JavaScript.